Location: *
(53.9002°N, 27.5624°E)
Time: 15:18:00
(UTC+00:00)

Cosmos 1666 Rocket - Pass Details

Date: 12 November 2019
Orbit: 603 x 634 km, 82.5° (Epoch: 15 December)

Event Time Altitude Azimuth Distance (km) Brightness Sun altitude
Rises 15:27:30 0° 355° (N) 2,919 6.9 -10.5°
Reaches altitude 10° 15:30:03 10° 7° (N) 2,002 6.0 -10.8°
Maximum altitude 15:33:50 27° 66° (ENE) 1,198 4.5 -11.4°
Drops below altitude 10° 15:37:34 10° 125° (SE) 1,972 5.8 -11.9°
Sets 15:40:03 0° 138° (SE) 2,867 6.7 -12.3°
